This demonstration page uses our WeatherBlox Daily Observations layout. Learn more.

39.29038, -76.61219

Hourly Observations for October 1, 2015

Temp ( °F °C ) Dew Point ( °F °C ) Humidity (%) Winds ( mph kmh ) Pressure ( in mb ) Visibility ( mi km ) Precip ( " mm )
12:54 am 00:54 undefined 63 17.2 54 12.2 73 73 undefined N/A 29.95 1014 N/A 0 0
1:54 am 01:54 undefined 60 15.6 56 13.3 86 86 undefined N/A 29.96 1015 N/A 0 0
2:54 am 02:54 undefined 59 15 56 13.3 90 90 undefined N/A 29.95 1014 N/A 0 0
3:54 am 03:54 undefined 58 14.4 55 12.8 90 90 undefined N/A 29.96 1015 N/A 0.03 0.762
4:54 am 04:54 undefined 58 14.4 55 12.8 90 90 undefined N/A 29.96 1015 N/A 0.04 1.016
5:54 am 05:54 undefined 58 14.4 55 12.8 90 90 undefined N/A 29.97 1015 N/A 0.03 0.762
6:54 am 06:54 undefined 58 14.4 55 12.8 90 90 undefined N/A 30 1016 N/A 0 0
7:54 am 07:54 undefined 58 14.4 54 12.2 87 87 undefined N/A 30.01 1016 N/A 0.01 0.254
8:54 am 08:54 undefined 58 14.4 54 12.2 87 87 undefined N/A 30.01 1016 N/A 0.04 1.016
9:54 am 09:54 undefined 57 13.9 54 12.2 90 90 undefined N/A 30.03 1017 N/A 0.03 0.762
10:54 am 10:54 undefined 58 14.4 54 12.2 87 87 undefined N/A 30.05 1018 N/A 0.04 1.016
11:54 am 11:54 undefined 58 14.4 54 12.2 87 87 undefined N/A 30.06 1018 N/A 0 0
12:54 pm 12:54 undefined 58 14.4 54 12.2 87 87 undefined N/A 30.05 1018 N/A 0.08 2.032
1:54 pm 13:54 undefined 58 14.4 53 11.7 84 84 undefined N/A 30.06 1018 N/A 0.01 0.254
2:54 pm 14:54 undefined 57 13.9 54 12.2 90 90 undefined N/A 30.04 1017 N/A 0.2 5.08
3:54 pm 15:54 undefined 57 13.9 53 11.7 87 87 undefined N/A 30.06 1018 N/A 0.1 2.54
4:54 pm 16:54 undefined 58 14.4 54 12.2 87 87 undefined N/A 30.08 1019 N/A 0 0
5:54 pm 17:54 undefined 58 14.4 53 11.7 84 84 undefined N/A 30.08 1019 N/A 0 0
6:54 pm 18:54 undefined 59 15 53 11.7 81 81 undefined N/A 30.08 1019 N/A 0 0
7:54 pm 19:54 undefined 70 21.1 60 15.6 71 71 undefined N/A 29.88 1012 N/A 0 0
8:54 pm 20:54 undefined 59 15 53 11.7 81 81 undefined N/A 30.1 1019 N/A 0 0
9:54 pm 21:54 undefined 58 14.4 53 11.7 84 84 undefined N/A 30.1 1019 N/A 0 0
10:54 pm 22:54 undefined 58 14.4 53 11.7 84 84 undefined N/A 30.1 1019 N/A 0 0
11:54 pm 23:54 undefined 58 14.4 53 11.7 84 84 undefined N/A 30.09 1019 N/A 0 0

Powered by AerisWeather